Wind_Speed
19 20 20 20 20 20 20 20 19 20 20 21 21 21 21 21 21 21 21 21 22 23 24 25 25 26 27 28 29 29 29 29 28 28 29 29 29 28 28 28 28 29 29 29 28 26 25 25 26 26 25 24 23 23 23 22 22 22 21 22 23 24 25 26 25 25 25 26 26
20 20 20 20 20 20 20 20 20 20 20 21 20 20 20 20 20 21 21 22 22 24 25 25 26 27 28 29 29 29 29 29 29 29 29 28 28 28 28 28 29 29 29 29 27 25 25 26 27 27 25 24 23 23 23 22 21 21 22 22 23 24 25 25 25 25 25 25 26
20 20 20 20 20 20 20 20 20 21 21 21 20 20 20 20 20 21 21 22 24 25 25 25 26 27 28 29 29 29 29 30 29 29 28 27 27 27 28 28 30 30 30 28 26 25 25 27 28 27 25 24 23 23 23 22 21 22 22 23 23 24 24 24 25 25 24 24 24
20 20 20 20 20 21 20 20 20 21 21 20 20 19 19 20 20 21 22 23 24 25 25 26 27 28 28 29 30 30 30 30 29 28 27 27 27 27 28 29 30 31 30 27 26 26 27 28 28 26 25 24 24 23 22 21 22 22 23 23 23 24 25 25 25 25 24 23 23
20 20 20 20 20 21 20 20 21 21 21 20 20 20 20 20 21 22 23 24 24 25 25 27 27 28 28 29 30 31 31 30 29 28 27 27 27 27 28 30 31 31 29 26 26 27 28 28 27 26 25 24 23 23 22 22 23 24 24 24 23 24 25 25 25 25 24 23 23
20 20 20 20 20 20 20 20 21 21 21 20 20 20 21 21 22 23 24 25 25 25 26 27 27 28 29 30 31 31 30 29 28 27 27 27 27 27 29 30 31 29 27 27 28 28 28 28 27 25 24 23 23 23 23 24 25 25 26 25 24 24 25 25 25 25 24 24 24
20 20 20 20 20 20 20 21 21 21 21 20 20 21 22 22 23 24 25 25 25 25 26 26 27 28 29 30 30 30 29 29 28 28 27 26 27 27 28 30 29 28 27 27 28 28 28 28 26 25 24 24 23 24 25 25 27 27 27 27 26 25 25 26 25 24 24 25 26
19 20 20 20 20 20 21 21 21 21 21 20 20 21 22 23 24 25 25 24 24 25 26 26 27 29 29 30 29 29 29 29 28 27 27 27 27 28 28 29 28 28 27 28 28 28 28 27 25 24 24 24 24 25 26 28 29 29 29 28 27 26 25 26 25 25 25 25 26
20 20 20 20 20 20 21 22 21 21 21 20 21 22 23 24 24 24 24 24 24 25 26 27 28 29 29 29 29 28 28 28 28 27 27 27 27 28 28 28 27 27 28 28 28 28 28 26 25 24 24 25 26 27 28 30 31 31 29 27 26 25 26 26 26 26 25 26 25
20 20 20 20 20 21 21 22 21 21 20 20 21 22 23 23 24 24 24 24 24 25 26 27 28 28 28 28 28 28 28 28 27 27 27 27 27 27 27 27 27 27 28 28 28 28 28 26 25 25 26 26 28 29 30 31 32 31 29 26 26 26 26 26 26 25 25 25 25
20 20 20 20 21 21 22 22 21 21 20 20 21 22 23 23 24 24 24 24 25 26 27 27 27 27 28 27 27 27 27 27 27 27 27 27 27 27 27 27 27 27 28 29 28 27 27 26 26 27 28 28 29 29 30 31 32 31 28 26 26 26 26 26 26 25 25 24 24
20 20 20 20 21 21 22 22 21 20 20 21 22 23 23 23 24 24 24 25 26 26 26 26 26 26 27 27 27 27 27 27 27 27 27 27 27 27 27 27 27 28 28 29 28 27 26 27 27 28 29 29 29 29 30 32 33 31 28 25 25 25 25 25 25 25 25 25 24
20 20 20 21 21 21 21 21 21 20 20 21 22 23 23 23 24 24 24 25 26 26 26 26 26 26 26 26 26 27 27 27 27 27 27 26 26 27 27 27 28 28 29 29 28 28 27 28 28 29 30 30 30 30 31 33 33 30 26 24 24 24 24 25 25 25 25 25 24
20 20 21 21 21 21 21 21 21 20 21 21 22 23 23 23 24 24 24 25 26 26 26 26 25 25 25 26 26 27 27 27 27 27 27 26 26 27 27 28 29 29 29 30 29 29 29 29 29 29 29 30 31 32 33 34 32 27 23 22 22 23 23 24 25 25 25 25 24
20 20 21 21 21 21 21 21 20 20 21 21 22 23 23 23 23 24 24 25 26 26 25 26 26 26 26 26 26 26 27 27 27 27 27 27 27 28 28 29 29 30 30 31 31 31 30 29 29 30 30 31 33 34 35 34 29 24 20 20 21 22 23 24 24 24 25 25 25
20 21 21 21 21 21 21 21 20 20 21 22 22 23 23 23 23 24 24 25 26 26 26 26 26 26 26 25 26 26 26 26 26 26 27 27 28 29 29 29 29 30 31 31 32 32 31 31 31 31 32 33 35 36 34 31 24 19 18 19 20 21 22 23 24 24 24 25 24
20 21 21 21 21 21 21 21 21 21 22 22 23 23 23 23 23 24 24 25 26 26 26 27 26 26 26 26 25 25 25 26 26 26 27 28 29 29 29 29 29 30 31 31 31 31 32 32 33 34 35 36 37 36 31 23 17 16 17 18 19 20 21 22 23 24 24 24 25
21 21 21 21 21 22 22 22 22 22 22 23 23 23 23 23 24 24 25 25 26 26 27 27 27 26 26 26 26 25 25 25 25 26 27 28 28 29 29 29 30 30 30 30 30 31 31 33 34 35 37 39 38 31 23 15 14 15 17 18 18 19 21 22 23 24 24 24 25
21 21 21 22 22 22 22 22 22 23 23 23 23 23 23 24 24 25 25 25 26 26 27 27 27 26 26 26 26 26 25 25 25 26 26 27 28 28 29 29 30 30 30 29 29 30 31 32 34 36 38 39 34 25 16 13 14 15 16 17 18 19 20 22 22 23 23 24 25
21 22 22 22 22 22 22 22 23 23 23 23 23 23 24 24 24 25 25 25 26 26 26 26 26 26 26 26 26 26 25 24 24 25 26 27 27 28 28 29 30 30 30 29 29 30 31 33 34 36 38 37 30 21 14 13 14 15 15 16 17 19 20 21 22 22 23 24 25
21 22 22 22 23 23 23 23 23 23 23 23 23 23 24 24 24 24 25 25 25 26 26 26 26 26 26 26 26 26 25 24 24 25 25 26 27 28 28 29 30 29 29 29 30 31 32 33 34 36 37 36 28 19 14 13 14 15 15 16 17 19 20 21 21 21 22 23 24
22 22 23 23 23 23 23 23 23 23 23 23 23 23 24 24 24 24 24 25 25 25 26 26 26 26 25 25 25 25 25 25 24 25 25 26 26 27 28 29 29 29 28 29 30 32 33 34 35 37 38 35 27 18 13 13 14 15 16 16 17 19 20 20 20 21 21 22 23
23 23 23 23 23 23 24 24 24 23 23 23 23 24 24 24 24 24 24 24 25 25 26 26 25 25 25 25 25 25 25 25 25 25 25 25 26 27 28 28 28 28 28 28 30 31 33 35 37 39 38 34 24 16 12 13 14 15 16 16 17 19 19 20 20 20 21 21 22
23 24 24 24 24 24 24 24 24 24 24 24 24 24 24 24 25 25 25 25 25 25 25 25 25 25 25 24 24 24 24 25 26 26 26 26 26 27 28 28 28 28 28 28 29 31 33 35 37 39 37 30 19 13 12 13 14 15 15 16 17 18 19 19 20 20 19 20 21
24 25 25 25 25 25 25 25 25 25 24 24 24 25 25 25 25 25 26 25 25 25 25 25 25 25 24 24 23 24 24 24 25 26 26 26 27 28 28 28 28 28 28 29 31 33 34 36 39 39 34 24 16 12 12 13 13 14 15 15 16 17 18 19 19 19 19 19 20
25 25 25 25 25 25 25 25 25 25 25 25 25 25 25 26 26 26 26 26 26 25 25 25 24 24 24 23 23 24 24 24 25 25 26 26 27 28 28 27 27 28 29 31 33 34 36 38 41 37 29 19 14 13 12 13 13 14 14 15 15 16 17 18 19 19 20 19 19
25 26 26 26 26 26 26 26 25 25 25 25 26 26 26 26 26 26 27 26 26 26 25 24 24 23 23 23 24 24 25 25 25 25 26 26 27 28 28 27 27 28 30 32 33 34 37 40 40 33 23 17 15 13 12 12 13 13 14 14 16 16 17 18 18 19 20 20 19
25 26 26 26 26 26 26 26 26 25 25 26 26 26 26 27 27 26 26 26 26 26 25 23 23 23 23 23 24 25 25 25 25 25 25 26 27 27 28 27 27 28 30 32 33 34 37 40 37 28 20 17 15 13 12 12 13 13 14 15 16 17 17 17 18 19 20 20 20
25 26 26 26 27 27 26 26 26 26 25 25 26 26 26 27 27 26 26 26 25 25 24 23 23 23 23 24 24 25 25 25 25 25 25 26 26 27 27 28 28 29 30 32 33 34 37 41 34 24 17 16 14 12 12 12 13 14 15 16 16 17 17 16 17 18 19 19 20
25 26 26 26 27 26 26 26 26 26 26 26 26 26 27 27 26 26 26 26 25 24 24 23 23 24 24 24 24 24 24 24 24 25 25 26 26 27 27 28 28 29 30 32 33 34 37 41 31 21 17 16 14 12 12 13 13 15 16 17 18 18 18 16 16 17 18 19 21
25 26 26 26 27 26 26 26 26 26 26 26 27 26 26 27 26 26 26 25 25 24 24 24 24 24 24 24 24 24 24 24 24 25 25 26 26 26 27 27 28 28 30 32 33 35 37 39 31 22 17 16 14 12 12 13 14 15 18 19 20 20 19 17 15 16 18 19 21
26 26 26 26 26 26 26 26 26 26 27 27 27 27 26 26 26 26 25 25 24 24 24 24 24 24 24 24 24 24 24 24 24 24 25 25 25 26 26 26 27 27 29 31 33 35 37 38 33 26 19 16 14 13 13 13 13 15 18 20 20 20 20 18 16 16 18 19 21
26 26 26 26 27 27 27 27 27 27 27 27 26 26 26 26 26 26 25 25 24 24 23 23 23 24 24 24 24 24 24 24 24 24 25 25 25 25 25 26 26 26 28 31 33 35 37 38 35 29 22 17 15 14 14 14 14 15 17 19 19 20 20 20 18 17 18 19 19
26 26 26 26 27 27 27 27 27 27 27 27 26 26 26 26 26 25 25 25 24 23 23 22 23 23 24 24 24 24 24 24 24 24 24 24 24 24 25 25 25 26 28 30 32 34 36 37 35 31 25 20 16 15 14 14 14 15 16 17 19 19 20 20 20 19 19 19 18
26 26 26 26 27 27 27 27 27 27 27 27 26 26 26 25 25 25 25 25 24 23 23 22 22 23 23 24 24 24 24 24 24 24 24 24 24 24 24 24 24 25 27 29 31 33 34 36 34 31 28 23 18 15 15 15 15 16 17 17 18 19 20 20 21 22 21 20 19
26 26 27 27 27 27 27 27 27 27 26 26 26 26 25 25 25 24 24 24 24 23 23 23 23 23 23 24 24 24 24 24 24 24 23 23 23 23 23 23 24 25 26 28 30 32 33 34 32 30 28 25 21 17 16 15 15 16 17 18 18 19 19 20 22 23 22 21 21
26 26 27 27 27 27 27 27 27 26 26 26 25 25 25 25 24 24 24 23 23 24 24 23 23 23 23 24 24 24 23 23 23 23 23 23 22 22 22 23 23 24 25 27 29 31 31 33 31 30 28 26 23 20 17 17 17 17 18 18 18 18 19 20 22 22 22 22 24
26 26 26 26 26 26 26 26 26 26 25 25 25 24 24 24 24 23 23 23 23 24 24 24 23 23 23 24 24 24 23 23 23 22 22 22 22 21 21 21 22 23 24 26 28 30 30 31 30 29 27 26 24 21 19 18 18 18 18 18 18 18 19 21 22 21 20 22 27
26 26 25 25 26 25 25 25 25 25 25 24 24 24 24 24 23 23 23 23 23 23 24 24 24 23 23 24 23 23 23 23 22 22 22 22 21 20 20 20 21 22 23 25 27 29 30 30 30 29 27 25 23 22 20 19 20 20 20 19 18 17 18 20 21 21 20 21 28
26 25 25 25 24 24 24 24 24 24 24 24 24 24 24 24 23 23 23 23 23 23 23 23 23 23 23 23 23 22 22 22 22 22 22 21 20 19 19 19 20 21 22 24 26 27 29 29 29 28 27 24 23 21 20 20 20 21 21 20 19 17 18 20 21 22 22 23 27
25 25 24 24 24 24 24 24 23 23 24 24 24 24 24 24 23 23 23 23 23 23 23 22 22 23 23 23 22 22 22 22 22 22 22 21 19 18 18 18 19 20 21 23 25 26 27 28 28 28 27 25 22 21 20 20 20 21 22 22 20 19 18 19 21 23 24 25 26
Wind_Direction
339 339 338 337 337 335 334 333 332 332 332 331 329 328 327 326 325 324 323 324 324 323 322 321 320 319 320 321 322 322 322 323 322 322 322 321 320 320 320 320 320 319 317 316 319 323 326 325 324 321 317 314 311 309 306 303 302 301 302 304 305 306 305 303 300 298 297 295 291
339 339 338 338 337 337 335 333 333 333 332 331 329 328 327 326 325 324 324 324 324 323 321 320 319 320 320 321 321 322 322 322 322 322 322 321 320 321 321 321 320 318 317 317 322 326 328 326 324 320 317 313 311 309 306 305 303 304 305 307 307 307 305 303 301 300 299 298 296
339 339 339 338 338 338 336 334 333 332 331 330 329 328 327 326 325 324 324 323 323 322 321 320 320 320 321 321 322 322 322 322 322 322 322 321 321 321 321 321 320 318 318 320 326 329 329 326 323 319 316 313 310 309 307 305 306 307 308 309 308 308 306 303 301 300 299 298 298
339 339 339 338 338 338 336 334 332 331 330 329 328 327 326 326 325 324 323 323 322 322 322 321 321 321 321 321 322 322 322 322 322 322 322 322 321 321 321 321 320 319 321 325 330 330 328 326 323 319 315 313 311 309 308 307 308 309 310 309 309 308 306 304 302 301 299 298 299
338 338 338 337 337 337 335 333 331 329 328 328 327 327 326 326 325 324 324 323 322 322 322 322 321 321 321 322 322 322 323 323 323 323 323 322 322 322 322 321 320 321 324 329 331 330 327 326 322 318 315 313 313 311 310 309 309 309 309 309 309 308 307 305 303 302 301 300 300
337 337 337 336 336 335 334 332 330 328 327 326 326 326 326 326 325 324 323 322 321 321 322 323 323 323 323 323 323 323 323 323 324 323 323 322 322 322 322 321 321 323 327 330 330 329 327 325 322 318 316 315 315 314 313 312 310 309 308 309 310 309 308 306 304 303 303 303 304
335 335 335 336 335 334 333 331 329 328 327 326 326 326 325 325 324 323 323 322 322 323 324 324 324 324 324 324 324 324 324 324 323 323 323 322 322 322 322 322 323 325 327 329 329 328 326 324 321 318 317 317 317 317 316 314 311 309 307 309 311 310 309 308 306 305 305 306 307
334 335 335 334 334 333 332 331 329 328 327 326 325 325 325 325 324 324 324 323 324 324 325 325 325 325 325 325 324 324 324 324 323 323 323 323 322 322 322 323 324 325 327 328 327 326 325 323 320 318 317 318 318 318 316 315 312 309 307 308 311 311 310 308 307 307 308 308 309
334 334 334 334 333 333 332 330 329 328 327 326 326 326 326 325 325 325 325 325 325 325 325 325 325 325 325 325 325 324 324 324 323 322 322 323 322 323 323 323 324 325 326 327 326 325 324 322 319 318 317 318 318 317 316 315 312 310 308 309 312 312 311 310 310 310 310 310 310
334 334 334 334 333 332 332 331 330 329 328 327 327 327 327 327 327 326 325 325 325 326 326 326 326 326 326 326 325 325 324 324 323 322 322 322 323 323 323 323 324 325 325 325 325 324 323 321 319 317 317 316 316 315 315 315 313 310 309 309 313 314 313 312 312 312 313 312 312
334 334 334 333 332 332 332 331 330 329 329 329 329 329 329 328 327 326 325 326 326 327 327 327 327 327 327 326 325 325 324 323 322 322 322 322 322 323 323 324 324 324 324 324 324 323 322 320 319 317 316 316 315 315 315 315 313 310 309 310 314 315 314 314 314 315 315 314 314
333 333 333 332 332 332 332 332 331 330 329 329 330 330 330 329 327 326 326 327 327 327 327 328 328 327 327 326 325 325 324 323 322 322 322 323 323 324 325 325 325 325 325 324 324 323 321 319 318 317 316 315 314 314 314 314 312 309 308 312 316 317 316 316 317 317 317 317 317
333 333 332 332 332 332 332 331 331 330 330 330 330 330 330 329 328 327 328 328 327 327 327 327 328 327 327 326 325 325 325 324 323 323 323 324 325 326 326 327 327 326 325 324 323 322 321 320 318 317 316 315 313 312 312 312 310 309 310 315 318 318 318 318 319 320 320 320 320
332 332 332 331 331 331 331 331 330 330 330 330 330 330 330 329 328 328 328 327 327 327 327 327 328 327 327 326 326 325 325 325 325 325 325 326 327 328 329 329 328 327 326 325 324 323 322 321 319 318 316 314 312 311 310 310 308 309 312 319 321 320 319 320 322 323 324 324 324
332 332 331 331 331 331 331 330 330 329 329 329 329 329 328 328 328 328 328 327 326 326 327 327 327 327 326 326 326 326 326 326 326 326 327 329 330 330 330 330 330 328 327 325 324 323 323 321 320 319 317 314 311 310 309 308 307 310 317 323 323 322 322 323 325 326 327 327 327
331 331 331 331 330 330 329 329 328 328 328 327 327 327 327 327 327 327 327 327 327 327 327 327 327 326 327 326 327 327 326 327 327 328 329 330 331 331 331 331 330 329 327 326 325 324 324 323 322 320 318 315 312 310 308 307 308 316 325 327 326 325 326 327 328 329 330 330 330
331 331 330 330 329 328 328 327 327 327 326 325 326 326 326 325 326 326 327 327 326 326 326 326 326 326 326 326 327 327 327 327 328 329 330 330 330 330 331 331 330 328 326 326 325 325 325 324 323 321 319 317 315 312 310 311 318 327 331 330 328 328 329 331 332 333 333 333 332
330 330 329 329 328 327 326 326 326 325 325 324 324 324 324 325 325 326 326 326 326 325 325 326 326 326 326 326 327 327 327 327 327 328 329 329 329 329 329 330 328 327 326 325 325 325 325 324 323 322 320 319 318 317 318 325 332 334 332 331 331 331 332 333 334 335 335 335 335
329 329 328 328 327 326 325 325 324 324 324 324 323 323 324 325 325 326 325 325 325 326 326 326 326 326 325 325 326 327 326 326 326 327 328 328 328 328 328 328 327 326 325 325 325 325 325 324 322 321 320 320 321 324 331 340 337 334 332 333 333 334 335 335 335 336 337 337 337
327 327 327 326 324 324 323 323 322 323 323 323 322 323 324 325 325 325 325 325 326 326 327 326 326 325 325 325 325 326 326 325 326 327 327 328 328 328 328 328 327 326 325 326 326 325 324 323 321 320 320 320 322 327 337 340 336 333 333 334 336 336 336 336 336 337 338 339 339
325 325 324 324 322 322 321 321 321 321 322 322 323 324 325 325 325 325 325 324 326 327 327 327 326 325 325 324 324 325 325 325 326 327 327 328 328 328 328 328 327 326 326 327 326 326 325 323 321 319 320 320 322 326 334 338 336 334 334 336 337 337 337 337 336 337 338 340 341
324 323 322 322 321 320 320 320 320 320 321 322 324 325 326 326 325 325 325 325 326 327 328 327 326 325 324 324 323 324 324 325 326 327 328 328 328 328 329 328 328 328 328 328 327 326 325 323 321 320 320 321 322 326 336 340 338 336 336 337 338 338 337 337 337 337 338 341 343
322 322 322 321 320 320 319 319 320 320 322 323 324 325 326 326 326 325 325 325 326 327 327 327 326 325 324 323 323 323 324 325 327 328 329 329 329 329 329 330 329 330 329 328 327 326 324 323 321 320 320 322 326 335 344 343 340 338 337 338 338 338 338 338 338 338 340 343 346
322 322 322 321 320 319 319 320 320 321 322 323 325 326 326 327 327 326 326 325 325 326 327 326 326 326 325 323 323 323 324 325 327 328 329 330 330 330 330 330 331 331 330 328 326 325 324 323 321 321 322 326 336 349 351 346 343 340 339 339 339 339 338 338 338 339 342 347 350
322 322 321 321 320 320 320 320 320 321 321 323 324 325 326 327 327 327 326 325 325 325 326 326 326 326 326 325 325 325 325 326 327 328 329 330 330 330 331 331 331 331 329 327 325 325 325 324 323 324 328 337 351 359 354 348 345 343 341 340 340 339 339 339 339 341 345 351 353
321 321 321 321 321 321 320 320 320 320 320 322 323 325 326 326 327 326 325 325 325 325 325 326 326 327 327 327 326 327 327 327 328 329 329 330 330 330 331 331 331 330 328 325 325 325 325 325 326 330 339 354 3 2 356 352 348 344 342 342 342 341 340 340 341 344 349 354 356
320 320 320 321 321 321 321 320 320 320 320 322 323 324 324 325 325 325 324 324 324 325 325 326 327 328 328 328 327 328 328 328 329 330 330 330 330 330 330 331 331 329 327 325 325 325 325 326 331 338 352 6 8 3 359 355 349 345 345 346 347 346 343 341 344 349 354 356 357
319 320 321 321 322 322 321 321 321 321 321 322 322 323 323 323 323 323 323 323 324 325 325 326 327 328 328 328 328 328 328 329 330 330 331 331 331 331 331 330 330 329 327 325 325 325 327 330 336 345 359 10 9 5 2 358 353 350 351 352 352 349 346 347 353 357 357 357 359
318 319 321 321 321 321 322 322 322 322 322 322 322 322 322 322 323 323 323 323 324 324 325 325 326 327 328 327 327 327 328 329 330 331 331 332 332 332 332 331 331 329 327 326 326 326 329 334 341 350 4 10 12 9 5 2 359 356 356 355 353 351 349 351 0 3 1 0 3
319 320 320 320 320 321 321 322 322 323 323 323 322 322 322 322 322 323 323 323 323 323 323 324 324 326 326 326 327 328 329 330 330 331 331 332 333 333 333 332 331 329 327 326 327 327 331 340 348 359 11 14 16 14 10 7 5 2 359 356 353 352 353 358 7 9 6 6 8
320 320 320 320 320 321 322 323 323 324 324 323 323 322 322 323 323 323 323 323 323 322 322 322 323 324 325 326 327 328 329 329 330 331 331 332 333 333 333 333 332 330 328 327 328 328 333 345 358 10 17 17 18 16 14 12 10 6 2 358 355 353 355 2 12 17 15 13 15
320 320 320 320 321 321 322 323 324 324 324 323 323 323 323 324 323 323 323 323 322 322 323 323 323 324 325 326 327 328 328 329 329 330 331 332 332 333 334 334 333 331 329 329 329 331 337 350 5 15 19 18 19 18 17 15 12 8 4 359 356 354 356 3 15 23 23 22 22
321 321 321 321 322 323 324 324 325 325 324 324 324 325 325 324 324 323 323 323 324 324 324 324 324 324 324 325 326 327 328 328 329 329 330 332 332 333 335 335 335 333 331 330 331 334 342 355 7 15 17 18 19 19 18 16 11 6 1 358 355 354 355 0 10 22 29 29 28
322 322 323 323 324 324 325 325 326 326 326 326 326 326 326 325 324 324 324 325 325 325 324 324 323 323 322 323 325 326 327 327 328 329 330 331 333 334 335 336 336 335 333 332 332 337 346 359 9 13 15 17 20 20 18 15 9 3 358 354 353 353 354 357 6 18 30 34 33
324 324 324 325 325 326 326 327 327 327 327 328 328 328 328 327 325 325 325 326 326 325 325 324 323 323 322 322 323 325 326 327 327 328 329 331 333 334 336 337 337 337 335 334 335 339 349 3 9 13 14 16 19 20 18 14 7 1 356 352 351 352 354 356 2 12 24 35 38
326 326 326 326 326 327 327 328 328 329 329 329 329 329 328 327 326 326 326 326 326 326 326 325 325 324 323 323 323 324 325 326 327 328 330 331 333 334 336 337 338 338 337 336 336 340 350 5 11 14 14 15 16 18 18 14 7 0 355 352 351 352 355 359 1 5 15 31 43
328 327 327 327 327 328 329 329 330 330 331 330 330 329 328 327 327 327 327 328 328 327 327 326 326 325 324 324 323 323 324 326 327 329 330 332 333 334 336 338 340 340 339 337 337 340 351 6 12 15 16 15 14 16 17 14 8 2 357 353 352 353 358 2 2 1 9 29 45
329 328 328 328 329 329 330 331 331 331 330 330 329 328 328 327 327 328 328 329 328 327 327 326 326 326 325 323 322 323 324 326 328 330 331 332 333 335 338 341 342 341 340 339 338 343 352 5 12 16 17 17 14 14 14 13 9 4 359 355 352 355 1 6 3 1 8 28 43
329 329 329 329 330 330 331 331 331 330 329 329 328 328 327 327 327 328 329 329 328 327 326 326 326 326 324 323 322 323 325 327 329 331 332 333 334 337 341 344 344 343 341 340 340 346 356 5 11 15 17 17 15 14 13 12 9 6 2 357 354 358 6 11 7 4 9 26 38
330 330 330 330 331 331 331 331 330 330 329 328 328 327 327 326 327 327 328 328 328 327 326 326 326 326 325 324 324 324 326 329 331 333 333 334 335 339 344 347 346 344 343 343 343 349 358 6 10 13 16 17 16 14 14 13 11 8 4 359 358 4 14 17 13 11 14 24 31
330 331 332 332 332 331 331 331 330 329 328 327 327 327 327 326 327 328 328 328 328 328 327 327 326 326 326 325 325 326 328 330 333 334 335 335 337 342 348 349 347 346 346 347 347 351 358 6 10 13 14 15 15 14 14 15 13 10 6 2 3 11 21 23 20 18 20 25 28
Height
872 871 869 868 867 865 864 862 861 859 858 856 854 853 851 849 848 846 844 843 841 839 837 835 834 831 829 828 826 824 823 821 819 818 816 814 812 811 809 807 806 804 802 800 798 797 795 794 792 790 788 787 785 783 782 780 779 777 776 775 773 772 770 768 767 765 763 762 760
872 871 870 869 867 865 864 862 861 859 858 857 855 854 852 850 848 846 844 843 841 840 838 835 833 831 829 827 826 824 822 820 819 817 815 814 812 810 809 807 805 803 801 799 797 796 795 793 792 790 788 786 784 782 780 779 778 776 775 773 772 771 769 767 765 763 762 760 758
872 871 869 868 867 866 864 863 861 860 858 857 855 854 852 850 849 847 845 843 842 840 838 835 833 831 829 827 825 824 822 820 818 816 815 813 811 809 808 806 804 802 800 799 797 795 794 793 791 789 787 784 783 781 779 778 776 775 773 772 771 769 768 765 763 762 760 758 756
872 871 869 868 867 866 864 863 861 860 858 857 855 854 852 850 849 847 845 843 841 839 838 835 833 831 829 827 825 823 821 820 818 816 814 813 811 809 807 805 804 801 799 798 796 795 794 792 790 788 786 783 782 780 778 777 775 774 773 771 769 768 766 764 762 760 758 756 754
872 871 870 868 867 866 864 863 861 859 858 856 855 853 852 850 849 847 845 843 841 839 837 835 833 831 829 827 825 823 821 819 818 816 814 812 810 809 807 805 803 801 799 798 796 794 793 791 789 787 785 783 781 779 778 776 774 773 771 770 768 766 765 763 761 759 757 755 753
872 871 869 868 867 866 864 863 861 859 858 856 855 853 851 850 848 846 844 843 840 839 837 834 833 830 828 826 824 822 820 819 817 815 814 812 810 808 806 804 802 800 799 797 796 794 792 790 788 786 784 782 780 778 777 775 773 772 770 768 767 765 763 762 759 757 755 753 752
872 871 869 868 867 865 864 862 861 859 858 856 854 853 851 849 848 846 844 842 840 838 836 834 832 830 828 826 824 822 820 818 816 815 813 811 810 808 806 804 802 800 799 797 795 794 792 790 788 785 783 781 779 778 776 774 773 771 769 767 765 763 762 760 758 756 754 752 750
872 871 869 868 866 865 864 862 860 859 857 855 854 852 851 849 847 845 843 841 839 838 836 834 832 830 828 826 824 822 819 818 816 814 813 811 809 807 805 804 802 800 798 796 795 793 791 789 787 785 783 781 779 777 775 773 772 769 768 765 764 762 761 759 757 755 753 751 749
871 870 869 867 866 864 863 861 860 858 857 855 854 852 850 849 847 845 843 841 839 837 835 833 831 829 827 825 824 821 819 817 815 814 812 810 809 807 805 803 801 799 798 796 794 792 790 788 786 784 782 780 778 776 774 772 770 768 766 764 763 761 759 758 756 754 752 750 748
871 870 868 867 865 864 862 861 859 858 856 854 853 851 850 848 846 844 842 840 839 837 835 833 831 829 827 825 823 821 819 817 815 813 811 810 808 806 804 803 801 799 797 795 793 791 789 787 785 783 782 780 778 775 773 771 769 767 765 763 761 759 758 756 754 753 750 748 746
871 869 868 867 865 864 862 860 859 857 856 854 852 851 849 847 845 844 842 840 838 836 834 833 830 829 826 824 822 820 819 817 814 813 811 809 808 806 804 802 800 799 797 795 793 791 788 786 784 782 780 778 777 774 772 770 768 765 763 762 760 758 757 755 753 751 749 747 745
871 869 868 866 865 863 862 860 858 857 855 854 852 850 849 847 845 843 841 839 838 836 834 832 830 828 826 824 822 820 818 816 814 812 810 808 807 805 803 802 800 798 796 794 792 790 788 786 784 782 779 778 775 773 771 768 766 764 762 760 759 758 756 753 752 750 748 746 744
870 869 867 866 864 863 861 859 858 856 854 853 851 850 848 846 844 843 841 839 837 835 833 831 829 828 826 824 822 819 818 816 814 812 810 808 806 804 803 801 799 797 795 793 791 789 788 785 783 781 779 777 774 772 770 767 765 763 761 759 758 756 755 753 751 749 747 745 743
870 869 867 865 864 862 861 859 858 856 854 853 851 849 848 846 844 842 840 839 837 835 833 831 829 827 825 824 821 819 817 815 813 811 809 807 806 804 802 800 798 796 794 792 790 788 787 784 783 780 778 776 773 770 768 766 763 762 760 759 757 756 754 752 750 748 746 744 742
869 868 866 865 863 862 860 859 857 855 854 852 850 849 847 845 843 842 840 838 836 834 832 830 828 826 825 823 821 819 817 815 813 811 809 807 805 803 802 799 798 795 793 791 789 787 785 783 781 779 777 774 771 768 766 764 762 761 760 758 757 755 753 751 749 748 746 743 741
869 868 866 864 863 861 860 859 857 855 854 852 850 848 847 845 843 841 839 838 835 834 832 830 828 826 824 822 820 819 816 814 812 810 809 806 804 803 801 799 797 795 793 790 788 786 783 782 780 778 775 773 769 767 764 762 761 760 759 758 756 754 753 751 749 747 745 743 741
869 867 865 864 862 861 859 858 856 855 853 851 849 848 846 844 842 841 839 837 835 833 831 829 828 826 824 822 820 818 816 814 812 810 808 806 804 802 800 799 797 794 792 789 787 785 783 780 778 776 773 770 767 764 762 761 760 760 758 757 756 754 753 751 749 747 745 743 741
868 866 865 864 862 860 859 857 856 854 852 851 849 847 845 844 842 840 839 837 835 833 830 829 827 825 823 821 819 818 816 814 812 810 808 806 804 802 800 798 796 794 791 789 787 785 782 779 777 774 771 768 765 763 761 761 760 759 758 757 755 754 752 750 749 747 745 743 741
868 866 864 863 861 860 858 857 855 853 852 850 848 846 845 843 842 840 838 836 834 832 830 828 826 824 823 821 819 817 815 814 812 810 808 806 804 802 800 798 795 793 791 788 786 784 782 779 776 773 770 767 764 763 761 761 760 759 758 756 755 753 752 750 748 747 745 743 741
867 865 864 862 861 859 857 856 854 853 851 849 848 846 844 843 841 839 837 835 834 832 830 828 826 824 822 820 818 816 815 813 811 809 807 805 804 801 799 797 794 792 790 788 786 783 780 778 775 772 769 766 764 763 761 760 760 758 758 756 755 753 752 750 748 747 745 743 741
867 865 863 862 860 858 857 855 854 852 850 849 847 845 844 842 840 839 837 835 833 831 829 827 825 823 821 819 818 816 814 812 811 809 807 805 803 801 799 796 794 791 789 787 784 782 779 777 773 770 768 765 764 762 761 760 759 758 757 756 754 753 752 750 748 746 745 743 741
866 864 863 861 859 858 856 854 853 851 849 848 846 845 843 841 839 838 836 834 833 831 829 827 825 823 821 819 817 815 814 812 810 809 807 805 803 800 798 796 794 791 788 786 783 781 778 775 772 769 766 764 762 761 760 759 759 758 757 756 754 753 751 750 748 746 744 743 741
865 864 862 860 859 857 855 854 852 850 849 847 845 844 842 840 839 837 835 834 832 830 828 826 824 823 820 819 817 815 813 811 809 808 806 804 802 800 798 796 793 791 788 786 783 780 777 774 771 768 765 763 761 760 759 759 758 758 756 755 754 753 751 749 748 746 744 743 741
865 863 862 860 858 857 855 853 852 850 848 846 845 843 842 840 838 836 835 833 831 829 828 826 824 822 820 818 816 814 813 811 809 807 805 804 802 800 797 795 793 790 788 785 783 780 778 774 770 767 763 761 760 759 759 759 758 757 756 755 754 753 751 749 748 746 744 743 742
864 863 861 859 858 856 854 853 851 849 848 846 844 843 841 839 838 836 834 832 830 829 827 825 823 821 819 817 815 814 812 810 808 806 804 803 801 799 797 795 792 790 787 784 782 780 777 774 771 767 763 761 759 759 759 758 758 757 756 755 754 752 751 749 747 746 744 743 742
864 862 860 859 857 855 854 852 850 849 847 845 844 842 840 839 837 835 833 831 829 828 826 824 822 820 819 817 815 813 812 810 808 806 804 802 800 799 797 794 792 790 787 784 781 779 776 773 770 766 763 760 760 759 758 758 758 757 756 755 754 752 751 749 747 746 744 743 742
863 862 860 858 857 855 853 851 849 848 846 844 843 841 839 838 836 834 832 830 829 827 825 823 822 820 818 816 814 813 811 809 808 806 804 802 800 798 796 794 792 790 787 784 781 778 776 773 769 765 762 760 760 759 759 758 758 757 756 755 753 752 751 749 748 746 744 743 742
863 861 859 858 856 854 852 850 849 847 845 844 842 840 839 837 835 834 832 830 828 826 824 823 821 819 818 816 814 812 811 809 807 805 804 802 800 798 796 794 792 789 787 784 781 778 775 772 768 764 762 761 760 760 759 758 758 757 756 755 753 752 751 749 748 747 745 743 742
862 860 859 857 855 853 852 850 848 846 845 843 841 840 838 836 834 833 831 829 827 825 824 822 820 819 817 815 814 812 810 809 807 805 804 802 800 798 796 794 791 789 786 783 781 778 775 772 767 764 762 761 761 760 759 759 758 757 756 755 753 752 751 750 748 747 745 743 742
862 860 858 856 854 853 851 849 848 846 844 843 841 839 837 835 834 832 830 828 827 825 823 822 820 818 817 815 813 812 810 808 807 805 803 802 800 798 796 794 791 788 786 783 780 778 775 772 767 763 762 762 761 761 760 759 758 758 756 755 753 752 751 750 749 748 746 744 743
861 859 858 856 854 852 850 849 847 845 844 842 840 839 837 835 833 831 829 828 826 824 823 821 819 818 816 814 813 811 810 808 806 805 803 801 800 798 796 794 791 788 785 783 780 777 775 772 766 763 762 762 761 761 760 760 759 758 757 755 753 752 751 750 749 748 746 745 743
860 859 857 855 853 851 850 848 846 845 843 841 840 838 836 834 833 831 829 827 825 824 822 821 819 817 815 814 812 811 809 808 806 805 803 801 799 798 796 794 791 788 785 783 779 777 774 771 766 763 763 762 762 761 761 760 760 759 758 756 754 752 751 750 749 748 747 745 744
860 858 856 854 853 851 849 848 846 844 843 841 839 837 835 834 832 830 828 827 825 823 822 820 819 817 815 813 812 810 809 808 806 804 803 801 799 798 795 794 791 789 786 783 780 777 774 771 767 765 763 763 763 762 762 761 760 759 758 756 754 753 752 751 749 748 747 746 745
859 857 855 854 852 850 849 847 845 844 842 840 839 837 835 833 831 829 828 826 824 823 821 820 819 817 815 814 812 810 809 807 806 804 803 801 799 797 795 794 791 789 786 783 780 777 774 771 768 766 765 764 763 763 763 762 761 760 759 757 755 754 753 752 750 749 748 747 746
859 857 855 853 851 850 848 846 845 843 841 839 838 836 834 833 831 829 827 825 824 822 821 819 818 817 815 813 812 810 808 807 805 804 802 801 799 797 795 794 791 789 787 783 780 778 775 773 770 768 767 765 764 764 763 763 762 761 759 758 756 755 754 753 752 750 749 748 747
858 856 854 853 851 849 848 846 844 843 841 839 837 836 834 832 830 828 827 825 823 822 820 819 817 816 814 813 811 809 808 807 805 804 802 800 799 797 795 793 791 789 787 784 781 778 776 774 772 770 768 767 766 765 764 764 763 761 760 759 758 756 755 754 753 752 751 749 748
858 856 854 852 851 849 847 846 844 842 841 839 837 835 833 831 829 828 826 824 823 821 820 818 817 815 814 812 811 809 808 806 805 803 802 800 799 797 795 793 792 790 787 785 782 779 777 774 773 771 770 768 767 766 766 765 764 763 761 760 759 758 757 755 754 753 752 751 749
857 856 854 852 850 849 847 846 844 842 840 839 837 835 833 831 829 828 826 824 823 821 819 818 816 815 814 812 810 809 807 806 805 803 802 800 799 797 795 794 792 790 788 785 783 780 777 775 774 773 771 770 769 768 767 766 765 764 763 761 760 759 758 757 755 754 753 752 751
857 855 854 852 850 849 847 845 844 842 840 838 836 834 833 831 829 828 826 825 823 821 819 818 816 814 813 811 810 809 807 806 804 803 802 800 799 797 795 794 792 791 788 786 783 781 778 777 775 773 772 772 771 770 769 768 767 765 764 763 761 760 759 758 757 755 754 753 752
857 855 854 852 851 849 847 845 844 842 840 838 836 834 832 831 829 828 826 824 823 821 819 818 816 814 813 811 809 808 807 806 804 803 802 800 799 797 796 794 793 791 789 787 784 782 780 778 776 775 773 773 772 771 770 769 768 767 765 764 762 761 760 760 758 757 755 755 754
857 855 854 852 850 849 847 845 844 842 840 838 836 834 832 831 829 828 826 824 823 821 819 817 816 814 812 811 809 808 807 805 804 803 801 800 799 797 796 795 794 792 790 788 786 783 781 780 778 776 775 774 773 773 772 771 770 768 767 765 764 763 762 762 760 759 758 757 756